Location: Amsterdam
(30.7274°N, 84.4357°W)
Time: 06:16:01
(UTC+00:00)

Tiros 1 - Pass Details

Date: 19 February 2026
Orbit: 618 x 649 km, 48.4° (Epoch: 5 March)

Event Time Altitude Azimuth Distance (km) Brightness Sun altitude
Rises 15:13:28 0° 292° (WNW) 2,907 10.0 33.5°
Reaches altitude 10° 15:17:47 10° 331° (NNW) 1,993 9.3 34.2°
Maximum altitude 15:18:53 11° 345° (NNW) 1,942 9.3 34.4°
Drops below altitude 10° 15:19:59 10° 359° (N) 1,990 9.4 34.5°
Sets 15:24:17 0° 37° (NE) 2,891 10.4 35.2°
